Time,TemperatureF,DewpointF,PressureIn,WindDirection,WindDirectionDegrees,WindSpeedMPH,WindSpeedGustMPH,Humidity,HourlyPrecipIn,Conditions,Clouds,dailyrainin,SoftwareType,DateUTC
2013-11-06 00:02:00,53.4,44.8,30.19,SSE,167,8.0,10.0,0,0.04,,,0.09,meteohub,2013-11-06 08:02:00,
2013-11-06 00:07:00,53.4,44.8,30.18,SSE,165,0.0,10.0,0,0.04,,,0.09,meteohub,2013-11-06 08:07:00,
2013-11-06 00:12:00,53.2,44.8,30.19,South,184,6.0,9.0,0,0.03,,,0.09,meteohub,2013-11-06 08:12:00,
2013-11-06 00:17:00,53.4,44.8,30.19,SSE,162,5.0,10.0,0,0.04,,,0.10,meteohub,2013-11-06 08:17:00,
2013-11-06 00:22:00,53.4,44.8,30.19,SSE,159,1.0,10.0,0,0.04,,,0.10,meteohub,2013-11-06 08:22:00,
2013-11-06 00:27:00,53.4,44.8,30.19,South,178,8.0,9.0,0,0.04,,,0.10,meteohub,2013-11-06 08:27:00,
2013-11-06 00:32:00,53.4,44.8,30.19,South,178,6.0,9.0,0,0.03,,,0.10,meteohub,2013-11-06 08:32:00,
2013-11-06 00:37:00,53.4,44.8,30.19,SSE,167,4.0,9.0,0,0.03,,,0.10,meteohub,2013-11-06 08:37:00,
2013-11-06 00:42:00,53.4,44.8,30.19,SSE,167,5.0,9.0,0,0.02,,,0.10,meteohub,2013-11-06 08:42:00,
2013-11-06 00:47:00,53.4,44.8,30.19,South,169,1.0,8.0,0,0.01,,,0.10,meteohub,2013-11-06 08:47:00,
2013-11-06 00:52:00,53.2,44.8,30.19,South,176,6.0,8.0,0,0.01,,,0.10,meteohub,2013-11-06 08:52:00,
2013-11-06 00:57:00,53.2,44.8,30.19,South,175,6.0,8.0,0,0.01,,,0.10,meteohub,2013-11-06 08:57:00,
2013-11-06 01:02:00,53.4,44.8,30.19,SSE,165,7.0,13.0,0,0.01,,,0.10,meteohub,2013-11-06 09:02:00,
2013-11-06 01:07:00,53.8,44.8,30.19,SSE,164,8.0,13.0,0,0.01,,,0.10,meteohub,2013-11-06 09:07:00,
2013-11-06 01:12:00,53.6,44.8,30.19,SSE,159,2.0,13.0,0,0.01,,,0.10,meteohub,2013-11-06 09:12:00,
2013-11-06 01:17:00,53.6,44.8,30.19,SSE,158,6.0,9.0,0,0.00,,,0.10,meteohub,2013-11-06 09:17:00,
2013-11-06 01:22:00,53.8,44.8,30.19,SSE,165,2.0,9.0,0,0.00,,,0.10,meteohub,2013-11-06 09:22:00,
2013-11-06 01:27:00,53.8,44.8,30.19,SSE,165,2.0,9.0,0,0.00,,,0.10,meteohub,2013-11-06 09:27:00,
2013-11-06 01:32:00,53.8,44.8,30.19,SSE,161,4.0,9.0,0,0.00,,,0.10,meteohub,2013-11-06 09:32:00,
2013-11-06 01:37:00,53.8,44.8,30.19,SSE,163,7.0,9.0,0,0.01,,,0.11,meteohub,2013-11-06 09:37:00,
2013-11-06 01:42:00,53.8,44.8,30.18,SSE,168,2.0,9.0,0,0.01,,,0.11,meteohub,2013-11-06 09:42:00,
2013-11-06 01:47:00,53.8,44.8,30.18,SSE,165,5.0,10.0,0,0.01,,,0.11,meteohub,2013-11-06 09:47:00,
2013-11-06 01:52:00,53.8,44.8,30.19,SSE,165,4.0,10.0,0,0.01,,,0.11,meteohub,2013-11-06 09:52:00,
2013-11-06 01:57:00,53.8,44.8,30.19,SSE,165,5.0,8.0,0,0.01,,,0.11,meteohub,2013-11-06 09:57:00,
2013-11-06 02:02:00,53.8,44.8,30.19,SSE,163,4.0,8.0,0,0.01,,,0.11,meteohub,2013-11-06 10:02:00,
2013-11-06 02:07:00,53.8,44.8,30.18,SSE,160,7.0,9.0,0,0.01,,,0.11,meteohub,2013-11-06 10:07:00,
2013-11-06 02:12:00,53.8,44.8,30.19,SSE,161,6.0,9.0,0,0.01,,,0.11,meteohub,2013-11-06 10:12:00,
2013-11-06 02:17:00,53.8,44.8,30.19,SSE,165,2.0,8.0,0,0.01,,,0.11,meteohub,2013-11-06 10:17:00,
2013-11-06 02:22:00,53.6,44.8,30.19,SSE,165,0.0,9.0,0,0.01,,,0.11,meteohub,2013-11-06 10:22:00,
2013-11-06 02:27:00,53.4,44.8,30.18,SSE,165,4.0,9.0,0,0.01,,,0.11,meteohub,2013-11-06 10:27:00,
2013-11-06 02:32:00,53.6,44.8,30.19,SSE,164,6.0,7.0,0,0.00,,,0.11,meteohub,2013-11-06 10:32:00,
2013-11-06 02:37:00,53.6,44.8,30.19,SSE,156,2.0,8.0,0,0.00,,,0.11,meteohub,2013-11-06 10:37:00,
2013-11-06 02:42:00,53.4,44.8,30.19,SSE,156,1.0,8.0,0,0.00,,,0.11,meteohub,2013-11-06 10:42:00,
2013-11-06 02:47:00,53.2,44.8,30.19,SSE,156,2.0,8.0,0,0.01,,,0.12,meteohub,2013-11-06 10:47:00,
2013-11-06 02:52:00,53.2,44.8,30.19,SSE,156,5.0,5.0,0,0.01,,,0.12,meteohub,2013-11-06 10:52:00,
2013-11-06 02:57:00,53.2,44.8,30.18,SSE,156,0.0,6.0,0,0.01,,,0.12,meteohub,2013-11-06 10:57:00,
2013-11-06 03:02:00,53.2,44.8,30.18,SSE,156,0.0,6.0,0,0.01,,,0.12,meteohub,2013-11-06 11:02:00,
2013-11-06 03:07:00,53.2,44.8,30.18,SSE,156,0.0,5.0,0,0.01,,,0.12,meteohub,2013-11-06 11:07:00,
2013-11-06 03:12:00,53.2,44.8,30.18,SSE,156,0.0,5.0,0,0.01,,,0.12,meteohub,2013-11-06 11:12:00,
2013-11-06 03:17:00,53.2,44.8,30.18,SSE,156,0.0,5.0,0,0.01,,,0.12,meteohub,2013-11-06 11:17:00,
2013-11-06 03:22:00,53.2,44.8,30.18,SSE,156,0.0,5.0,0,0.01,,,0.12,meteohub,2013-11-06 11:22:00,
2013-11-06 03:27:00,53.2,44.8,30.18,SSE,156,0.0,0.0,0,0.01,,,0.12,meteohub,2013-11-06 11:27:00,
2013-11-06 03:32:00,53.2,44.8,30.18,SSE,156,0.0,4.0,0,0.01,,,0.12,meteohub,2013-11-06 11:32:00,
2013-11-06 03:37:00,53.2,44.8,30.18,SSE,166,4.0,4.0,0,0.01,,,0.12,meteohub,2013-11-06 11:37:00,
2013-11-06 03:42:00,53.2,44.8,30.18,SSE,167,4.0,8.0,0,0.00,,,0.12,meteohub,2013-11-06 11:42:00,
2013-11-06 03:47:00,53.2,44.8,30.18,South,176,4.0,9.0,0,0.00,,,0.12,meteohub,2013-11-06 11:47:00,
2013-11-06 03:52:00,53.2,44.8,30.18,South,177,2.0,9.0,0,0.00,,,0.12,meteohub,2013-11-06 11:52:00,
2013-11-06 03:57:00,53.2,44.8,30.18,SSE,157,4.0,9.0,0,0.00,,,0.12,meteohub,2013-11-06 11:57:00,
2013-11-06 04:02:00,53.2,44.8,30.18,South,169,6.0,8.0,0,0.00,,,0.12,meteohub,2013-11-06 12:02:00,
2013-11-06 04:07:00,53.2,44.8,30.18,South,185,3.0,8.0,0,0.00,,,0.12,meteohub,2013-11-06 12:07:00,
2013-11-06 04:12:00,53.2,44.8,30.18,South,185,3.0,8.0,0,0.00,,,0.12,meteohub,2013-11-06 12:12:00,
2013-11-06 04:17:00,53.2,44.8,30.18,South,185,4.0,8.0,0,0.00,,,0.12,meteohub,2013-11-06 12:17:00,
2013-11-06 04:22:00,53.2,44.8,30.18,South,180,4.0,7.0,0,0.00,,,0.12,meteohub,2013-11-06 12:22:00,
2013-11-06 04:27:00,53.1,44.8,30.18,South,171,4.0,8.0,0,0.00,,,0.12,meteohub,2013-11-06 12:27:00,
2013-11-06 04:32:00,53.1,44.8,30.18,South,172,5.0,8.0,0,0.00,,,0.12,meteohub,2013-11-06 12:32:00,
2013-11-06 04:37:00,53.1,44.8,30.19,South,173,5.0,8.0,0,0.00,,,0.12,meteohub,2013-11-06 12:37:00,
2013-11-06 04:42:00,52.9,44.8,30.19,South,175,2.0,9.0,0,0.00,,,0.12,meteohub,2013-11-06 12:42:00,
2013-11-06 04:47:00,52.9,44.8,30.19,South,181,6.0,9.0,0,0.00,,,0.12,meteohub,2013-11-06 12:47:00,
2013-11-06 04:52:00,52.9,44.8,30.19,South,176,5.0,9.0,0,0.00,,,0.12,meteohub,2013-11-06 12:52:00,
2013-11-06 04:58:00,52.9,45.3,30.19,South,172,4.0,7.0,0,0.00,,,0.12,meteohub,2013-11-06 12:58:00,
2013-11-06 05:03:00,52.9,45.3,30.19,South,178,2.0,8.0,0,0.00,,,0.12,meteohub,2013-11-06 13:03:00,
2013-11-06 05:08:00,52.9,45.3,30.19,South,182,4.0,8.0,0,0.00,,,0.12,meteohub,2013-11-06 13:08:00,
2013-11-06 05:13:00,52.9,45.3,30.19,SSW,193,4.0,8.0,0,0.00,,,0.12,meteohub,2013-11-06 13:13:00,
2013-11-06 05:18:00,52.9,45.3,30.19,SSW,198,5.0,8.0,0,0.00,,,0.12,meteohub,2013-11-06 13:18:00,
2013-11-06 05:23:00,52.9,45.3,30.19,South,182,3.0,8.0,0,0.00,,,0.12,meteohub,2013-11-06 13:23:00,
2013-11-06 05:28:00,52.7,45.3,30.19,South,182,2.0,8.0,0,0.00,,,0.12,meteohub,2013-11-06 13:28:00,
2013-11-06 05:34:00,52.7,44.8,30.19,South,182,2.0,8.0,0,0.00,,,0.12,meteohub,2013-11-06 13:34:00,
2013-11-06 05:39:00,52.7,44.8,30.19,South,182,0.0,8.0,0,0.00,,,0.12,meteohub,2013-11-06 13:39:00,
2013-11-06 05:44:00,52.7,44.8,30.19,South,182,0.0,4.0,0,0.00,,,0.12,meteohub,2013-11-06 13:44:00,
2013-11-06 05:49:00,52.7,44.8,30.19,South,182,0.0,4.0,0,0.00,,,0.12,meteohub,2013-11-06 13:49:00,
2013-11-06 05:54:00,52.7,44.8,30.19,South,182,0.0,3.0,0,0.00,,,0.12,meteohub,2013-11-06 13:54:00,
2013-11-06 06:00:00,52.7,44.8,30.19,South,182,2.0,3.0,0,0.00,,,0.12,meteohub,2013-11-06 14:00:00,
2013-11-06 06:05:00,52.7,44.8,30.19,South,182,0.0,3.0,0,0.00,,,0.12,meteohub,2013-11-06 14:05:00,
2013-11-06 06:10:00,52.9,44.8,30.19,South,182,0.0,4.0,0,0.00,,,0.12,meteohub,2013-11-06 14:10:00,
2013-11-06 06:15:00,52.9,44.8,30.19,South,182,0.0,4.0,0,0.00,,,0.12,meteohub,2013-11-06 14:15:00,
2013-11-06 06:20:00,52.9,44.8,30.19,South,182,0.0,2.0,0,0.00,,,0.12,meteohub,2013-11-06 14:20:00,
2013-11-06 06:25:00,52.9,44.8,30.19,South,182,0.0,2.0,0,0.00,,,0.12,meteohub,2013-11-06 14:25:00,
2013-11-06 06:30:00,52.9,44.8,30.19,South,182,2.0,2.0,0,0.00,,,0.12,meteohub,2013-11-06 14:30:00,
2013-11-06 06:36:00,52.7,44.8,30.19,South,182,2.0,5.0,0,0.00,,,0.12,meteohub,2013-11-06 14:36:00,
2013-11-06 06:41:00,52.7,44.8,30.19,South,182,3.0,6.0,0,0.00,,,0.12,meteohub,2013-11-06 14:41:00,
2013-11-06 06:46:00,52.9,44.8,30.19,South,182,2.0,6.0,0,0.00,,,0.12,meteohub,2013-11-06 14:46:00,
2013-11-06 06:51:00,52.9,44.8,30.19,SSE,167,4.0,6.0,0,0.00,,,0.12,meteohub,2013-11-06 14:51:00,
2013-11-06 06:56:00,53.1,44.8,30.19,SSE,167,5.0,6.0,0,0.00,,,0.12,meteohub,2013-11-06 14:56:00,
2013-11-06 07:01:00,53.1,44.8,30.19,SSE,167,0.0,6.0,0,0.00,,,0.12,meteohub,2013-11-06 15:01:00,
2013-11-06 07:06:00,52.9,44.8,30.19,SSE,167,0.0,6.0,0,0.00,,,0.12,meteohub,2013-11-06 15:06:00,
2013-11-06 07:11:00,53.1,44.8,30.19,SSE,167,0.0,6.0,0,0.00,,,0.12,meteohub,2013-11-06 15:11:00,
2013-11-06 07:17:00,53.1,44.8,30.20,SSE,167,0.0,5.0,0,0.00,,,0.12,meteohub,2013-11-06 15:17:00,
2013-11-06 07:22:00,53.1,44.8,30.20,SSE,167,0.0,5.0,0,0.00,,,0.12,meteohub,2013-11-06 15:22:00,
2013-11-06 07:27:00,52.9,44.8,30.20,SSE,167,0.0,5.0,0,0.00,,,0.12,meteohub,2013-11-06 15:27:00,
2013-11-06 07:32:00,52.9,44.8,30.21,SSE,167,2.0,6.0,0,0.00,,,0.12,meteohub,2013-11-06 15:32:00,
2013-11-06 07:37:00,53.1,44.8,30.21,SSE,167,4.0,6.0,0,0.00,,,0.12,meteohub,2013-11-06 15:37:00,
2013-11-06 07:42:00,53.1,44.8,30.21,SSE,167,4.0,7.0,0,0.00,,,0.12,meteohub,2013-11-06 15:42:00,
2013-11-06 07:47:00,53.1,44.8,30.21,SSE,167,4.0,7.0,0,0.00,,,0.12,meteohub,2013-11-06 15:47:00,
2013-11-06 07:52:00,53.1,44.8,30.21,SSE,167,1.0,7.0,0,0.00,,,0.12,meteohub,2013-11-06 15:52:00,
2013-11-06 07:57:00,53.2,44.8,30.20,SSE,167,0.0,7.0,0,0.00,,,0.12,meteohub,2013-11-06 15:57:00,
2013-11-06 08:02:00,53.4,44.8,30.19,SE,137,6.0,7.0,0,0.00,,,0.12,meteohub,2013-11-06 16:02:00,
2013-11-06 08:07:00,53.8,44.8,30.19,SE,136,2.0,7.0,0,0.01,,,0.13,meteohub,2013-11-06 16:07:00,
2013-11-06 08:12:00,54.0,44.8,30.20,SE,136,0.0,8.0,0,0.01,,,0.13,meteohub,2013-11-06 16:12:00,
2013-11-06 08:17:00,54.0,44.8,30.20,SE,136,0.0,8.0,0,0.01,,,0.13,meteohub,2013-11-06 16:17:00,
2013-11-06 08:22:00,54.0,44.8,30.20,SE,136,0.0,8.0,0,0.01,,,0.13,meteohub,2013-11-06 16:22:00,
2013-11-06 08:27:00,54.1,44.8,30.20,SE,136,0.0,5.0,0,0.01,,,0.13,meteohub,2013-11-06 16:27:00,
2013-11-06 08:32:00,54.1,44.8,30.20,SE,136,0.0,6.0,0,0.01,,,0.13,meteohub,2013-11-06 16:32:00,
2013-11-06 08:37:00,54.3,44.8,30.20,SE,135,2.0,6.0,0,0.02,,,0.14,meteohub,2013-11-06 16:37:00,
2013-11-06 08:42:00,54.3,44.8,30.20,SE,135,0.0,6.0,0,0.02,,,0.14,meteohub,2013-11-06 16:42:00,
2013-11-06 08:47:00,54.1,44.8,30.21,SE,136,2.0,6.0,0,0.02,,,0.14,meteohub,2013-11-06 16:47:00,
2013-11-06 08:52:00,54.0,44.8,30.21,SE,136,0.0,6.0,0,0.02,,,0.14,meteohub,2013-11-06 16:52:00,
2013-11-06 08:57:00,53.8,44.8,30.21,SE,136,0.0,6.0,0,0.02,,,0.14,meteohub,2013-11-06 16:57:00,
2013-11-06 09:02:00,53.8,44.8,30.20,SE,136,0.0,5.0,0,0.02,,,0.14,meteohub,2013-11-06 17:02:00,
2013-11-06 09:07:00,54.0,45.0,30.20,SE,136,0.0,0.0,0,0.01,,,0.14,meteohub,2013-11-06 17:07:00,
2013-11-06 09:12:00,54.0,45.0,30.21,SE,136,0.0,0.0,0,0.01,,,0.14,meteohub,2013-11-06 17:12:00,
2013-11-06 09:17:00,54.1,45.0,30.22,SE,136,0.0,0.0,0,0.01,,,0.14,meteohub,2013-11-06 17:17:00,
2013-11-06 09:22:00,54.3,45.0,30.21,SE,136,0.0,0.0,0,0.01,,,0.14,meteohub,2013-11-06 17:22:00,
2013-11-06 09:27:00,54.3,45.0,30.21,SE,136,0.0,0.0,0,0.01,,,0.14,meteohub,2013-11-06 17:27:00,
2013-11-06 09:32:00,54.3,45.0,30.21,SE,136,0.0,0.0,0,0.01,,,0.14,meteohub,2013-11-06 17:32:00,
2013-11-06 09:37:00,54.3,45.0,30.20,SE,136,0.0,0.0,0,0.00,,,0.14,meteohub,2013-11-06 17:37:00,
2013-11-06 09:42:00,54.3,45.0,30.20,SE,136,0.0,0.0,0,0.00,,,0.14,meteohub,2013-11-06 17:42:00,
2013-11-06 09:47:00,54.3,45.0,30.21,SE,136,0.0,0.0,0,0.00,,,0.14,meteohub,2013-11-06 17:47:00,
2013-11-06 09:52:00,54.3,45.0,30.21,SE,136,0.0,0.0,0,0.00,,,0.14,meteohub,2013-11-06 17:52:00,
2013-11-06 09:57:00,54.3,45.0,30.21,SE,136,1.0,2.0,0,0.00,,,0.14,meteohub,2013-11-06 17:57:00,
2013-11-06 10:02:00,54.3,45.5,30.21,SE,136,0.0,2.0,0,0.01,,,0.15,meteohub,2013-11-06 18:02:00,
2013-11-06 10:07:00,54.1,45.5,30.21,SE,136,0.0,2.0,0,0.01,,,0.15,meteohub,2013-11-06 18:07:00,
2013-11-06 10:12:00,54.0,45.5,30.20,SE,136,0.0,2.0,0,0.02,,,0.16,meteohub,2013-11-06 18:12:00,
2013-11-06 10:17:00,54.0,45.5,30.20,SE,136,0.0,2.0,0,0.02,,,0.16,meteohub,2013-11-06 18:17:00,
2013-11-06 10:22:00,53.8,45.5,30.20,SE,136,0.0,4.0,0,0.02,,,0.16,meteohub,2013-11-06 18:22:00,
2013-11-06 10:27:00,54.0,45.5,30.20,SE,136,0.0,4.0,0,0.02,,,0.16,meteohub,2013-11-06 18:27:00,
2013-11-06 10:33:00,54.0,45.0,30.20,SE,136,0.0,4.0,0,0.02,,,0.16,meteohub,2013-11-06 18:33:00,
2013-11-06 10:38:00,54.0,45.0,30.21,SE,136,0.0,0.0,0,0.02,,,0.16,meteohub,2013-11-06 18:38:00,
2013-11-06 10:43:00,54.1,45.0,30.20,SE,136,0.0,0.0,0,0.02,,,0.16,meteohub,2013-11-06 18:43:00,
2013-11-06 10:48:00,54.1,45.0,30.20,SE,136,0.0,0.0,0,0.02,,,0.16,meteohub,2013-11-06 18:48:00,
2013-11-06 10:53:00,54.3,45.0,30.20,SE,136,0.0,0.0,0,0.02,,,0.16,meteohub,2013-11-06 18:53:00,
2013-11-06 10:58:00,54.7,45.0,30.20,SE,136,0.0,0.0,0,0.01,,,0.16,meteohub,2013-11-06 18:58:00,
2013-11-06 11:03:00,54.9,45.0,30.20,SE,136,0.0,0.0,0,0.01,,,0.16,meteohub,2013-11-06 19:03:00,
2013-11-06 11:09:00,55.0,45.0,30.20,SE,136,0.0,0.0,0,0.01,,,0.16,meteohub,2013-11-06 19:09:00,
2013-11-06 11:14:00,55.4,45.1,30.20,SE,136,0.0,0.0,0,0.00,,,0.16,meteohub,2013-11-06 19:14:00,
2013-11-06 11:19:00,55.6,45.1,30.19,SE,136,2.0,0.0,0,0.00,,,0.16,meteohub,2013-11-06 19:19:00,
2013-11-06 11:24:00,56.1,45.1,30.19,SE,136,0.0,6.0,0,0.00,,,0.16,meteohub,2013-11-06 19:24:00,
2013-11-06 11:29:00,56.3,45.1,30.19,SSE,167,2.0,6.0,0,0.00,,,0.16,meteohub,2013-11-06 19:29:00,
2013-11-06 11:34:00,55.0,45.1,30.19,SSE,166,2.0,7.0,0,0.00,,,0.16,meteohub,2013-11-06 19:34:00,
2013-11-06 11:39:00,54.3,45.1,30.19,SSE,166,2.0,7.0,0,0.00,,,0.16,meteohub,2013-11-06 19:39:00,
2013-11-06 11:45:00,54.1,45.7,30.19,SSE,166,0.0,7.0,0,0.00,,,0.16,meteohub,2013-11-06 19:45:00,
2013-11-06 11:50:00,54.1,45.7,30.19,SSE,166,0.0,5.0,0,0.00,,,0.16,meteohub,2013-11-06 19:50:00,
2013-11-06 11:55:00,54.1,45.7,30.19,SSE,167,2.0,5.0,0,0.00,,,0.16,meteohub,2013-11-06 19:55:00,
2013-11-06 12:00:00,54.1,45.7,30.19,SSE,167,0.0,5.0,0,0.00,,,0.16,meteohub,2013-11-06 20:00:00,
2013-11-06 12:05:00,54.1,45.7,30.18,SSE,167,4.0,5.0,0,0.00,,,0.17,meteohub,2013-11-06 20:05:00,
2013-11-06 12:10:00,54.1,45.9,30.19,SSE,167,0.0,5.0,0,0.01,,,0.17,meteohub,2013-11-06 20:10:00,
2013-11-06 12:15:00,54.0,45.9,30.19,SSE,167,0.0,5.0,0,0.01,,,0.17,meteohub,2013-11-06 20:15:00,
2013-11-06 12:21:00,54.0,45.9,30.18,SSE,167,0.0,5.0,0,0.02,,,0.17,meteohub,2013-11-06 20:21:00,
2013-11-06 12:26:00,54.0,45.9,30.18,SSE,167,2.0,4.0,0,0.02,,,0.18,meteohub,2013-11-06 20:26:00,
2013-11-06 12:31:00,54.0,45.9,30.18,SSE,167,1.0,5.0,0,0.02,,,0.18,meteohub,2013-11-06 20:31:00,
2013-11-06 12:36:00,54.0,45.9,30.18,SSE,167,0.0,6.0,0,0.02,,,0.18,meteohub,2013-11-06 20:36:00,
2013-11-06 12:41:00,54.1,45.9,30.18,SSE,167,2.0,6.0,0,0.02,,,0.18,meteohub,2013-11-06 20:41:00,
2013-11-06 12:46:00,54.3,45.9,30.17,SSE,167,0.0,6.0,0,0.03,,,0.19,meteohub,2013-11-06 20:46:00,
2013-11-06 12:51:00,54.3,45.3,30.17,SSE,167,0.0,5.0,0,0.03,,,0.19,meteohub,2013-11-06 20:51:00,
2013-11-06 12:57:00,54.5,45.9,30.17,SSE,167,2.0,5.0,0,0.03,,,0.19,meteohub,2013-11-06 20:57:00,
2013-11-06 13:02:00,54.3,45.9,30.17,SSE,167,0.0,5.0,0,0.02,,,0.19,meteohub,2013-11-06 21:02:00,
2013-11-06 13:07:00,54.1,45.9,30.17,South,174,4.0,6.0,0,0.02,,,0.19,meteohub,2013-11-06 21:07:00,
2013-11-06 13:12:00,54.0,45.9,30.17,South,191,6.0,7.0,0,0.02,,,0.19,meteohub,2013-11-06 21:12:00,
2013-11-06 13:17:00,53.8,45.9,30.17,SSW,194,2.0,8.0,0,0.02,,,0.19,meteohub,2013-11-06 21:17:00,
2013-11-06 13:22:00,53.6,45.9,30.17,SSE,163,5.0,8.0,0,0.01,,,0.19,meteohub,2013-11-06 21:22:00,
2013-11-06 13:27:00,53.6,45.9,30.17,SSE,166,0.0,8.0,0,0.01,,,0.19,meteohub,2013-11-06 21:27:00,
2013-11-06 13:32:00,53.6,45.9,30.17,South,169,5.0,7.0,0,0.01,,,0.19,meteohub,2013-11-06 21:32:00,
2013-11-06 13:37:00,53.8,45.9,30.17,SW,216,4.0,7.0,0,0.01,,,0.19,meteohub,2013-11-06 21:37:00,
2013-11-06 13:42:00,53.8,45.9,30.16,South,176,2.0,7.0,0,0.01,,,0.19,meteohub,2013-11-06 21:42:00,
2013-11-06 13:47:00,54.1,45.9,30.16,South,184,2.0,7.0,0,0.00,,,0.19,meteohub,2013-11-06 21:47:00,
2013-11-06 13:52:00,54.3,45.9,30.16,South,184,0.0,7.0,0,0.00,,,0.19,meteohub,2013-11-06 21:52:00,
2013-11-06 13:57:00,54.5,46.0,30.16,South,184,2.0,7.0,0,0.00,,,0.19,meteohub,2013-11-06 21:57:00,
2013-11-06 14:02:00,54.7,46.0,30.16,South,184,1.0,5.0,0,0.00,,,0.19,meteohub,2013-11-06 22:02:00,
2013-11-06 14:07:00,54.7,46.0,30.15,South,184,1.0,5.0,0,0.00,,,0.19,meteohub,2013-11-06 22:07:00,
2013-11-06 14:12:00,54.7,46.0,30.15,South,184,0.0,5.0,0,0.00,,,0.19,meteohub,2013-11-06 22:12:00,
2013-11-06 14:17:00,54.9,45.5,30.15,South,184,0.0,4.0,0,0.00,,,0.19,meteohub,2013-11-06 22:17:00,
2013-11-06 14:22:00,54.9,46.0,30.15,South,184,0.0,4.0,0,0.00,,,0.19,meteohub,2013-11-06 22:22:00,
2013-11-06 14:27:00,54.9,46.0,30.14,South,184,0.0,0.0,0,0.00,,,0.19,meteohub,2013-11-06 22:27:00,
2013-11-06 14:32:00,54.7,46.0,30.14,South,184,0.0,0.0,0,0.00,,,0.19,meteohub,2013-11-06 22:32:00,
2013-11-06 14:38:00,54.9,46.0,30.14,South,184,0.0,0.0,0,0.01,,,0.19,meteohub,2013-11-06 22:38:00,
2013-11-06 14:43:00,54.9,45.5,30.14,South,184,0.0,0.0,0,0.01,,,0.20,meteohub,2013-11-06 22:43:00,
2013-11-06 14:48:00,54.9,45.5,30.14,South,184,0.0,0.0,0,0.02,,,0.21,meteohub,2013-11-06 22:48:00,
2013-11-06 14:53:00,55.2,45.5,30.13,South,184,0.0,0.0,0,0.02,,,0.21,meteohub,2013-11-06 22:53:00,
2013-11-06 14:58:00,55.4,45.5,30.13,South,184,0.0,0.0,0,0.02,,,0.21,meteohub,2013-11-06 22:58:00,
2013-11-06 15:03:00,55.6,45.5,30.13,South,184,0.0,0.0,0,0.02,,,0.21,meteohub,2013-11-06 23:03:00,
2013-11-06 15:08:00,55.6,45.5,30.13,South,184,0.0,0.0,0,0.02,,,0.21,meteohub,2013-11-06 23:08:00,
2013-11-06 15:14:00,55.8,45.5,30.13,South,184,0.0,0.0,0,0.02,,,0.21,meteohub,2013-11-06 23:14:00,
2013-11-06 15:19:00,55.8,45.5,30.13,South,184,0.0,0.0,0,0.02,,,0.21,meteohub,2013-11-06 23:19:00,
2013-11-06 15:24:00,55.8,45.5,30.12,South,184,0.0,0.0,0,0.02,,,0.21,meteohub,2013-11-06 23:24:00,
2013-11-06 15:29:00,55.8,45.5,30.12,South,184,0.0,0.0,0,0.02,,,0.21,meteohub,2013-11-06 23:29:00,
2013-11-06 15:34:00,55.6,45.5,30.12,South,184,0.0,0.0,0,0.02,,,0.21,meteohub,2013-11-06 23:34:00,
2013-11-06 15:39:00,55.2,45.5,30.12,South,184,0.0,0.0,0,0.01,,,0.21,meteohub,2013-11-06 23:39:00,
2013-11-06 15:45:00,55.0,45.5,30.12,South,184,0.0,0.0,0,0.00,,,0.21,meteohub,2013-11-06 23:45:00,
2013-11-06 15:50:00,55.0,45.5,30.12,South,184,0.0,0.0,0,0.00,,,0.21,meteohub,2013-11-06 23:50:00,
2013-11-06 15:55:00,55.0,45.5,30.12,South,184,0.0,0.0,0,0.00,,,0.21,meteohub,2013-11-06 23:55:00,
2013-11-06 16:00:00,54.9,45.5,30.12,South,184,0.0,0.0,0,0.00,,,0.21,meteohub,2013-11-07 00:00:00,
2013-11-06 16:05:00,55.0,45.5,30.12,South,184,0.0,0.0,0,0.00,,,0.00,meteohub,2013-11-07 00:05:00,
2013-11-06 16:10:00,55.4,45.5,30.11,South,184,0.0,0.0,0,0.00,,,0.00,meteohub,2013-11-07 00:10:00,
2013-11-06 16:15:00,55.0,45.5,30.12,South,184,0.0,0.0,0,0.00,,,0.00,meteohub,2013-11-07 00:15:00,
2013-11-06 16:21:00,54.9,45.5,30.11,South,184,4.0,4.0,0,0.00,,,0.00,meteohub,2013-11-07 00:21:00,
2013-11-06 16:26:00,55.2,45.5,30.11,South,184,0.0,4.0,0,0.00,,,0.00,meteohub,2013-11-07 00:26:00,
2013-11-06 16:31:00,55.2,45.5,30.11,South,184,1.0,4.0,0,0.00,,,0.00,meteohub,2013-11-07 00:31:00,
2013-11-06 16:36:00,54.9,45.5,30.10,South,184,0.0,4.0,0,0.00,,,0.00,meteohub,2013-11-07 00:36:00,
2013-11-06 16:41:00,55.2,45.5,30.10,South,184,0.0,4.0,0,0.00,,,0.00,meteohub,2013-11-07 00:41:00,
2013-11-06 16:46:00,54.9,45.5,30.10,South,184,0.0,4.0,0,0.00,,,0.00,meteohub,2013-11-07 00:46:00,
2013-11-06 16:51:00,54.5,45.5,30.10,South,184,0.0,4.0,0,0.00,,,0.00,meteohub,2013-11-07 00:51:00,
2013-11-06 16:56:00,54.5,45.5,30.10,South,184,0.0,1.0,0,0.00,,,0.00,meteohub,2013-11-07 00:56:00,
2013-11-06 17:02:00,54.7,45.5,30.10,South,184,2.0,2.0,0,0.00,,,0.00,meteohub,2013-11-07 01:02:00,
2013-11-06 17:07:00,54.5,45.5,30.10,South,184,1.0,3.0,0,0.00,,,0.00,meteohub,2013-11-07 01:07:00,
2013-11-06 17:12:00,54.5,45.5,30.10,South,184,5.0,5.0,0,0.00,,,0.00,meteohub,2013-11-07 01:12:00,
2013-11-06 17:17:00,54.1,45.5,30.11,South,182,5.0,6.0,0,0.00,,,0.00,meteohub,2013-11-07 01:17:00,
2013-11-06 17:22:00,54.1,45.5,30.11,South,184,0.0,8.0,0,0.00,,,0.00,meteohub,2013-11-07 01:22:00,
2013-11-06 17:27:00,54.1,45.5,30.10,South,187,5.0,9.0,0,0.00,,,0.00,meteohub,2013-11-07 01:27:00,
2013-11-06 17:32:00,54.3,46.0,30.11,South,183,5.0,9.0,0,0.00,,,0.00,meteohub,2013-11-07 01:32:00,
2013-11-06 17:37:00,54.3,46.0,30.11,South,184,7.0,10.0,0,0.00,,,0.00,meteohub,2013-11-07 01:37:00,
2013-11-06 17:42:00,54.5,46.0,30.11,South,177,8.0,10.0,0,0.00,,,0.00,meteohub,2013-11-07 01:42:00,
2013-11-06 17:47:00,54.7,46.0,30.11,South,191,5.0,8.0,0,0.01,,,0.01,meteohub,2013-11-07 01:47:00,
2013-11-06 17:52:00,54.9,46.0,30.11,SSW,193,5.0,9.0,0,0.01,,,0.01,meteohub,2013-11-07 01:52:00,
2013-11-06 17:57:00,54.9,46.0,30.11,South,188,5.0,9.0,0,0.01,,,0.01,meteohub,2013-11-07 01:57:00,
2013-11-06 18:02:00,55.0,46.0,30.11,South,185,5.0,9.0,0,0.01,,,0.01,meteohub,2013-11-07 02:02:00,
2013-11-06 18:07:00,55.0,46.0,30.11,South,185,4.0,7.0,0,0.01,,,0.01,meteohub,2013-11-07 02:07:00,
2013-11-06 18:12:00,54.9,46.0,30.11,South,185,4.0,7.0,0,0.01,,,0.01,meteohub,2013-11-07 02:12:00,
2013-11-06 18:17:00,55.0,46.0,30.11,South,185,0.0,7.0,0,0.01,,,0.01,meteohub,2013-11-07 02:17:00,
2013-11-06 18:22:00,55.2,45.5,30.11,South,185,2.0,6.0,0,0.01,,,0.01,meteohub,2013-11-07 02:22:00,
2013-11-06 18:27:00,54.9,46.0,30.10,South,189,6.0,8.0,0,0.02,,,0.02,meteohub,2013-11-07 02:27:00,
2013-11-06 18:32:00,54.9,46.0,30.10,South,184,4.0,8.0,0,0.02,,,0.02,meteohub,2013-11-07 02:32:00,
2013-11-06 18:37:00,55.0,46.0,30.10,South,176,5.0,8.0,0,0.02,,,0.02,meteohub,2013-11-07 02:37:00,
2013-11-06 18:42:00,55.6,45.5,30.10,South,176,4.0,8.0,0,0.02,,,0.02,meteohub,2013-11-07 02:42:00,
2013-11-06 18:47:00,55.8,45.5,30.10,South,176,2.0,8.0,0,0.01,,,0.02,meteohub,2013-11-07 02:47:00,
2013-11-06 18:52:00,55.8,45.5,30.10,South,176,0.0,8.0,0,0.01,,,0.02,meteohub,2013-11-07 02:52:00,
2013-11-06 18:57:00,55.4,45.5,30.10,South,176,5.0,6.0,0,0.01,,,0.02,meteohub,2013-11-07 02:57:00,
2013-11-06 19:02:00,55.0,45.5,30.10,South,176,0.0,6.0,0,0.01,,,0.02,meteohub,2013-11-07 03:02:00,
2013-11-06 19:07:00,54.9,45.5,30.10,South,176,4.0,6.0,0,0.01,,,0.02,meteohub,2013-11-07 03:07:00,
2013-11-06 19:12:00,54.9,45.5,30.10,South,176,4.0,6.0,0,0.01,,,0.02,meteohub,2013-11-07 03:12:00,
2013-11-06 19:17:00,54.9,45.5,30.09,South,176,0.0,6.0,0,0.01,,,0.02,meteohub,2013-11-07 03:17:00,
2013-11-06 19:22:00,54.9,45.5,30.09,South,176,0.0,6.0,0,0.00,,,0.02,meteohub,2013-11-07 03:22:00,
2013-11-06 19:27:00,55.2,45.5,30.09,South,176,0.0,5.0,0,0.00,,,0.02,meteohub,2013-11-07 03:27:00,
2013-11-06 19:32:00,55.6,45.5,30.09,SSE,168,2.0,4.0,0,0.00,,,0.02,meteohub,2013-11-07 03:32:00,
2013-11-06 19:37:00,55.8,45.5,30.09,SSE,156,2.0,7.0,0,0.00,,,0.02,meteohub,2013-11-07 03:37:00,
2013-11-06 19:42:00,55.8,45.5,30.09,SSE,156,1.0,7.0,0,0.00,,,0.02,meteohub,2013-11-07 03:42:00,
2013-11-06 19:47:00,55.8,45.5,30.09,SSE,156,4.0,7.0,0,0.00,,,0.02,meteohub,2013-11-07 03:47:00,
2013-11-06 19:52:00,55.8,45.5,30.08,SSE,156,0.0,7.0,0,0.00,,,0.02,meteohub,2013-11-07 03:52:00,
2013-11-06 19:57:00,55.8,45.5,30.08,SSE,148,0.0,6.0,0,0.00,,,0.02,meteohub,2013-11-07 03:57:00,
2013-11-06 20:02:00,55.9,45.5,30.08,SSE,148,0.0,7.0,0,0.00,,,0.02,meteohub,2013-11-07 04:02:00,
2013-11-06 20:07:00,55.9,45.5,30.08,SSE,148,0.0,7.0,0,0.00,,,0.02,meteohub,2013-11-07 04:07:00,
2013-11-06 20:12:00,55.9,45.5,30.08,SSE,148,0.0,7.0,0,0.00,,,0.03,meteohub,2013-11-07 04:12:00,
2013-11-06 20:17:00,55.9,45.5,30.09,SSE,148,0.0,6.0,0,0.01,,,0.03,meteohub,2013-11-07 04:17:00,
2013-11-06 20:22:00,55.9,45.5,30.09,SSE,148,0.0,6.0,0,0.01,,,0.03,meteohub,2013-11-07 04:22:00,
2013-11-06 20:27:00,55.6,45.5,30.09,SSE,148,0.0,6.0,0,0.01,,,0.03,meteohub,2013-11-07 04:27:00,
2013-11-06 20:32:00,55.4,45.5,30.09,SSE,148,0.0,6.0,0,0.01,,,0.03,meteohub,2013-11-07 04:32:00,
2013-11-06 20:37:00,54.9,45.5,30.09,SSE,148,0.0,4.0,0,0.01,,,0.03,meteohub,2013-11-07 04:37:00,
2013-11-06 20:42:00,54.1,45.5,30.09,SSE,155,4.0,4.0,0,0.01,,,0.03,meteohub,2013-11-07 04:42:00,
2013-11-06 20:47:00,54.1,45.5,30.09,South,169,7.0,7.0,0,0.01,,,0.03,meteohub,2013-11-07 04:47:00,
2013-11-06 20:52:00,54.7,46.0,30.09,SSE,163,5.0,6.0,0,0.01,,,0.03,meteohub,2013-11-07 04:52:00,
2013-11-06 20:57:00,54.5,46.0,30.09,South,169,5.0,10.0,0,0.01,,,0.03,meteohub,2013-11-07 04:57:00,
2013-11-06 21:01:00,54.5,46.0,30.09,South,171,6.0,10.0,0,0.01,,,0.03,meteohub,2013-11-07 05:01:00,
2013-11-06 21:02:00,54.7,46.0,30.09,South,171,4.0,10.0,0,0.01,,,0.03,meteohub,2013-11-07 05:02:00,
2013-11-06 21:03:00,54.5,46.0,30.09,South,171,6.0,10.0,0,0.01,,,0.03,meteohub,2013-11-07 05:03:00,
2013-11-06 21:05:00,54.5,46.0,30.09,SSE,159,6.0,10.0,0,0.01,,,0.03,meteohub,2013-11-07 05:05:00,
2013-11-06 21:06:00,54.7,46.0,30.09,SSE,159,5.0,10.0,0,0.01,,,0.03,meteohub,2013-11-07 05:06:00,
2013-11-06 21:12:00,55.0,46.0,30.08,SSE,163,8.0,10.0,0,0.01,,,0.04,meteohub,2013-11-07 05:12:00,
2013-11-06 21:17:00,55.2,46.0,30.08,SSW,194,11.0,11.0,0,0.01,,,0.04,meteohub,2013-11-07 05:17:00,
2013-11-06 21:22:00,55.4,46.0,30.09,South,174,10.0,10.0,0,0.01,,,0.04,meteohub,2013-11-07 05:22:00,
2013-11-06 21:27:00,55.2,46.0,30.09,SSE,165,7.0,11.0,0,0.01,,,0.04,meteohub,2013-11-07 05:27:00,
2013-11-06 21:32:00,55.0,46.0,30.08,SSW,202,11.0,11.0,0,0.01,,,0.04,meteohub,2013-11-07 05:32:00,
2013-11-06 21:37:00,55.2,46.0,30.08,South,169,6.0,11.0,0,0.01,,,0.04,meteohub,2013-11-07 05:37:00,
2013-11-06 21:42:00,55.0,46.0,30.08,SSE,158,6.0,11.0,0,0.01,,,0.04,meteohub,2013-11-07 05:42:00,
2013-11-06 21:47:00,55.2,46.0,30.08,South,173,2.0,11.0,0,0.01,,,0.04,meteohub,2013-11-07 05:47:00,
2013-11-06 21:52:00,55.2,46.0,30.08,SE,130,2.0,11.0,0,0.01,,,0.04,meteohub,2013-11-07 05:52:00,
2013-11-06 21:57:00,55.2,46.0,30.07,SE,131,7.0,12.0,0,0.01,,,0.04,meteohub,2013-11-07 05:57:00,
2013-11-06 22:02:00,55.2,46.0,30.07,SE,127,4.0,12.0,0,0.01,,,0.04,meteohub,2013-11-07 06:02:00,
2013-11-06 22:07:00,55.2,46.0,30.07,SE,137,5.0,12.0,0,0.01,,,0.04,meteohub,2013-11-07 06:07:00,
2013-11-06 22:12:00,55.2,46.0,30.06,SE,133,7.0,12.0,0,0.01,,,0.04,meteohub,2013-11-07 06:12:00,
2013-11-06 22:17:00,55.2,46.0,30.06,SE,140,7.0,12.0,0,0.00,,,0.04,meteohub,2013-11-07 06:17:00,
2013-11-06 22:22:00,55.2,46.0,30.06,ESE,119,4.0,10.0,0,0.00,,,0.04,meteohub,2013-11-07 06:22:00,
2013-11-06 22:27:00,55.4,46.0,30.06,SE,126,6.0,11.0,0,0.00,,,0.04,meteohub,2013-11-07 06:27:00,
2013-11-06 22:32:00,55.4,46.0,30.05,SE,132,6.0,11.0,0,0.00,,,0.04,meteohub,2013-11-07 06:32:00,
2013-11-06 22:37:00,55.4,46.0,30.05,ESE,117,6.0,11.0,0,0.00,,,0.04,meteohub,2013-11-07 06:37:00,
2013-11-06 22:42:00,55.2,46.0,30.05,ESE,115,0.0,11.0,0,0.00,,,0.04,meteohub,2013-11-07 06:42:00,
2013-11-06 22:47:00,55.2,46.0,30.05,ESE,122,5.0,11.0,0,0.00,,,0.04,meteohub,2013-11-07 06:47:00,
2013-11-06 22:52:00,55.2,46.0,30.04,SE,132,6.0,11.0,0,0.00,,,0.04,meteohub,2013-11-07 06:52:00,
2013-11-06 22:57:00,55.2,46.0,30.04,SE,126,1.0,11.0,0,0.00,,,0.04,meteohub,2013-11-07 06:57:00,
2013-11-06 23:02:00,55.2,46.0,30.04,SE,127,0.0,11.0,0,0.00,,,0.04,meteohub,2013-11-07 07:02:00,
2013-11-06 23:07:00,55.2,46.0,30.04,SE,127,4.0,11.0,0,0.00,,,0.04,meteohub,2013-11-07 07:07:00,
2013-11-06 23:12:00,55.2,46.0,30.04,SE,129,6.0,11.0,0,0.00,,,0.04,meteohub,2013-11-07 07:12:00,
2013-11-06 23:17:00,55.2,46.0,30.04,SE,125,8.0,12.0,0,0.00,,,0.04,meteohub,2013-11-07 07:17:00,
2013-11-06 23:22:00,55.2,46.0,30.04,ESE,123,2.0,12.0,0,0.00,,,0.04,meteohub,2013-11-07 07:22:00,
2013-11-06 23:27:00,55.2,46.0,30.04,ESE,123,0.0,11.0,0,0.00,,,0.04,meteohub,2013-11-07 07:27:00,
2013-11-06 23:32:00,55.0,45.5,30.03,ESE,123,0.0,11.0,0,0.00,,,0.04,meteohub,2013-11-07 07:32:00,
2013-11-06 23:37:00,55.2,45.5,30.03,ESE,123,0.0,7.0,0,0.00,,,0.04,meteohub,2013-11-07 07:37:00,
2013-11-06 23:42:00,55.2,46.0,30.03,ESE,123,2.0,7.0,0,0.00,,,0.04,meteohub,2013-11-07 07:42:00,
2013-11-06 23:47:00,55.4,45.5,30.03,ESE,123,4.0,5.0,0,0.00,,,0.04,meteohub,2013-11-07 07:47:00,
2013-11-06 23:52:00,55.6,45.5,30.02,ESE,123,0.0,5.0,0,0.00,,,0.04,meteohub,2013-11-07 07:52:00,
2013-11-06 23:57:00,55.0,46.0,30.02,SSE,152,5.0,6.0,0,0.00,,,0.04,meteohub,2013-11-07 07:57:00,